Location: Killam
(52.7910°N, 111.8608°W)
Time: 11:23:59
(UTC+00:00)

KKS-1 - Visible Passes

Search period start: 15 March 2026 00:00
Search period end: 25 March 2026 00:00
Orbit: 616 x 625 km, 98.1° (Epoch: 14 March)

Date Brightness Start Highest point End Pass type
(mag) Time Alt. Az. Time Alt. Az. Time Alt. Az.
15 Mar ? 08:32:48 10° N 08:33:27 14° N 08:33:27 14° N visible
16 Mar ? 08:50:14 10° N 08:51:05 15° N 08:51:05 15° N visible
17 Mar ? 09:07:45 10° N 09:08:44 16° N 09:08:44 16° N visible
18 Mar ? 07:48:44 10° NNE 07:49:11 13° NNE 07:49:11 13° NNE visible
18 Mar ? 09:25:19 10° N 09:26:22 15° NNW 09:26:22 15° NNW visible
19 Mar ? 08:06:00 10° NNE 08:06:49 15° NNE 08:06:49 15° NNE visible
19 Mar ? 09:43:01 10° NNW 09:43:59 14° NNW 09:43:59 14° NNW visible
20 Mar ? 08:23:20 10° NNE 08:24:26 18° NNE 08:24:26 18° NNE visible
20 Mar ? 10:00:54 10° NNW 10:01:37 12° NNW 10:01:37 12° NNW visible
21 Mar ? 08:40:44 10° N 08:42:03 19° N 08:42:03 19° N visible
22 Mar ? 07:22:12 10° NNE 07:22:30 11° NE 07:22:30 11° NE visible
22 Mar ? 08:58:10 10° N 08:59:41 20° N 08:59:41 20° N visible
23 Mar ? 07:39:20 10° NNE 07:40:07 15° NNE 07:40:07 15° NNE visible
23 Mar ? 09:15:41 10° N 09:17:17 19° NNW 09:17:17 19° NNW visible
24 Mar ? 07:56:31 10° NNE 07:57:43 18° NNE 07:57:43 18° NNE visible
24 Mar ? 09:33:17 10° N 09:34:54 17° NNW 09:34:54 17° NNW visible
